WMT8HT LRSB-EDDN

Flight info

Callsign WMT8HT
Flight time N/A
Altitude 36000
Route ULMIN DCT TIXIP DCT TEGRI DCT GAZDA DCT ARSIN DCT SUBEN T161 AKINI Z109 UPALA UPALA1V
Aircraft A320/M-SDE1E2E3FGIJ1J4RWXY/LB1

Departure

Time 2026-05-04 10:28
Airport Sibiu International Airport (LRSB)

Arrival

Time N/A
Airport Nuremberg Airport (EDDN)
Time Latitude Longitude Altitude Speed Heading
2026-05-04 09:52 45.78845 24.09630 1460 ft 0 kts 31°
2026-05-04 10:22 45.78848 24.09636 1457 ft 1 kts 54°
2026-05-04 10:22 45.78847 24.09652 1459 ft 2 kts 105°
2026-05-04 10:23 45.78840 24.09656 1460 ft 2 kts 152°
2026-05-04 10:23 45.78822 24.09660 1460 ft 4 kts 170°
2026-05-04 10:25 45.78562 24.09990 1454 ft 18 kts 90°
2026-05-04 10:25 45.78537 24.10136 1452 ft 11 kts 110°
2026-05-04 10:25 45.78540 24.10229 1446 ft 7 kts 49°
2026-05-04 10:25 45.78570 24.10204 1450 ft 4 kts 258°
2026-05-04 10:26 45.78561 24.10175 1447 ft 2 kts 252°
2026-05-04 10:26 45.78561 24.10156 1447 ft 2 kts 270°
2026-05-04 10:26 45.78561 24.10152 1447 ft 0 kts 270°
2026-05-04 10:27 45.78561 24.10136 1451 ft 7 kts 270°
2026-05-04 10:27 45.78566 24.09842 1457 ft 65 kts 272°
2026-05-04 10:27 45.78581 24.08870 1478 ft 127 kts 271°
2026-05-04 10:28 45.78605 24.07380 1639 ft 162 kts 267°
2026-05-04 10:28 45.78644 24.05810 2523 ft 157 kts 276°
2026-05-04 10:28 45.78679 24.04244 3184 ft 158 kts 277°
2026-05-04 10:28 45.78702 24.02661 3742 ft 161 kts 276°
2026-05-04 10:29 45.78727 24.00961 4062 ft 182 kts 275°
2026-05-04 10:29 45.78759 23.99042 4373 ft 204 kts 275°
2026-05-04 10:29 45.78796 23.96900 4632 ft 227 kts 274°
2026-05-04 10:29 45.78833 23.94514 4963 ft 252 kts 275°
2026-05-04 10:30 45.78873 23.91893 5514 ft 272 kts 274°
2026-05-04 10:30 45.78910 23.89148 6357 ft 280 kts 274°
2026-05-04 10:30 45.78946 23.86333 7222 ft 285 kts 274°
2026-05-04 10:30 45.78981 23.83465 8062 ft 290 kts 274°
2026-05-04 10:31 45.79017 23.80548 8943 ft 295 kts 274°
2026-05-04 10:31 45.79053 23.77584 9797 ft 300 kts 273°
2026-05-04 10:32 45.80007 23.57351 13397 ft 362 kts 290°
2026-05-04 10:33 45.80714 23.53855 14133 ft 368 kts 290°